TimeEDT,TemperatureF,Dew PointF,Humidity,Sea Level PressureIn,VisibilityMPH,Wind Direction,Wind SpeedMPH,Gust SpeedMPH,PrecipitationIn,Events,Conditions,WindDirDegrees,DateUTC
12:15 AM,46.8,46.8,100,30.17,10.0,Calm,Calm,-,N/A,,Clear,0,2012-10-10 04:15:00
12:35 AM,46.4,46.4,100,30.17,10.0,Calm,Calm,-,N/A,,Clear,0,2012-10-10 04:35:00
12:55 AM,45.7,45.7,100,30.17,10.0,Calm,Calm,-,N/A,,Clear,0,2012-10-10 04:55:00
1:15 AM,45.5,45.5,100,30.17,10.0,Calm,Calm,-,N/A,,Clear,0,2012-10-10 05:15:00
1:35 AM,45.0,45.0,100,30.17,10.0,Calm,Calm,-,N/A,,Clear,0,2012-10-10 05:35:00
1:55 AM,44.6,44.6,100,30.17,10.0,Calm,Calm,-,N/A,,Clear,0,2012-10-10 05:55:00
2:15 AM,44.4,44.4,100,30.17,-9999.0,Calm,Calm,-,N/A,,Unknown,0,2012-10-10 06:15:00
2:35 AM,44.4,44.4,100,30.17,10.0,Calm,Calm,-,N/A,,Mostly Cloudy,0,2012-10-10 06:35:00
2:55 AM,45.5,45.5,100,30.16,10.0,Calm,Calm,-,N/A,,Overcast,0,2012-10-10 06:55:00
3:15 AM,45.5,45.5,100,30.16,10.0,Calm,Calm,-,N/A,,Overcast,0,2012-10-10 07:15:00
3:35 AM,46.6,46.6,100,30.15,10.0,Calm,Calm,-,N/A,,Overcast,0,2012-10-10 07:35:00
3:55 AM,46.9,46.9,100,30.14,10.0,Calm,Calm,-,N/A,,Overcast,0,2012-10-10 07:55:00
4:15 AM,47.3,47.3,100,30.14,10.0,Calm,Calm,-,N/A,,Mostly Cloudy,0,2012-10-10 08:15:00
4:35 AM,48.2,48.2,100,30.14,10.0,Calm,Calm,-,N/A,,Overcast,0,2012-10-10 08:35:00
4:55 AM,48.4,48.4,100,30.15,10.0,Calm,Calm,-,N/A,,Overcast,0,2012-10-10 08:55:00
5:15 AM,48.7,48.7,100,30.15,10.0,Calm,Calm,-,N/A,,Overcast,0,2012-10-10 09:15:00
5:35 AM,49.3,49.3,100,30.15,10.0,Calm,Calm,-,N/A,,Overcast,0,2012-10-10 09:35:00
5:55 AM,49.1,49.1,100,30.15,10.0,Calm,Calm,-,N/A,,Overcast,0,2012-10-10 09:55:00
6:15 AM,49.6,49.6,100,30.16,10.0,Calm,Calm,-,N/A,,Overcast,0,2012-10-10 10:15:00
6:35 AM,50.0,49.8,99,30.16,10.0,Calm,Calm,-,N/A,,Overcast,0,2012-10-10 10:35:00
6:55 AM,50.2,50.0,99,30.16,10.0,Calm,Calm,-,N/A,,Overcast,0,2012-10-10 10:55:00
7:15 AM,50.0,50.0,100,30.17,10.0,Calm,Calm,-,N/A,,Overcast,0,2012-10-10 11:15:00
7:35 AM,50.5,50.5,100,30.18,10.0,Calm,Calm,-,N/A,,Overcast,0,2012-10-10 11:35:00
7:55 AM,51.1,51.1,100,30.18,10.0,Calm,Calm,-,N/A,,Overcast,0,2012-10-10 11:55:00
8:35 AM,51.8,51.8,100,30.18,5.0,Calm,Calm,-,N/A,,Overcast,0,2012-10-10 12:35:00
8:55 AM,52.7,52.7,100,30.19,10.0,WNW,3.5,-,N/A,,Overcast,290,2012-10-10 12:55:00
9:15 AM,53.1,53.1,100,30.19,7.0,Calm,Calm,-,N/A,,Overcast,0,2012-10-10 13:15:00
9:35 AM,54.0,54.0,100,30.19,7.0,West,3.5,-,N/A,,Overcast,270,2012-10-10 13:35:00
9:55 AM,55.0,54.9,99,30.19,10.0,WSW,4.6,-,N/A,,Overcast,240,2012-10-10 13:55:00
10:15 AM,56.3,55.4,97,30.19,10.0,West,6.9,-,N/A,,Overcast,270,2012-10-10 14:15:00
10:35 AM,58.5,56.3,93,30.19,10.0,West,4.6,-,N/A,,Overcast,260,2012-10-10 14:35:00
10:55 AM,58.8,55.9,90,30.19,10.0,SW,5.8,-,N/A,,Mostly Cloudy,230,2012-10-10 14:55:00
11:15 AM,62.1,56.5,82,30.18,10.0,WSW,5.8,-,N/A,,Scattered Clouds,250,2012-10-10 15:15:00
11:35 AM,64.8,57.0,76,30.18,10.0,WSW,8.1,-,N/A,,Clear,250,2012-10-10 15:35:00
11:55 AM,65.8,55.6,69,30.17,10.0,WSW,8.1,11.5,N/A,,Clear,250,2012-10-10 15:55:00
12:15 PM,67.3,54.1,63,30.17,10.0,West,12.7,17.3,N/A,,Clear,280,2012-10-10 16:15:00
12:35 PM,68.7,54.7,61,30.16,10.0,West,5.8,-,N/A,,Clear,280,2012-10-10 16:35:00
12:55 PM,69.4,54.5,59,30.16,10.0,West,11.5,-,N/A,,Clear,270,2012-10-10 16:55:00
1:15 PM,69.3,53.4,57,30.16,10.0,WNW,11.5,17.3,N/A,,Clear,290,2012-10-10 17:15:00
1:35 PM,70.2,54.5,57,30.14,10.0,WNW,6.9,-,N/A,,Clear,300,2012-10-10 17:35:00
1:55 PM,71.1,54.5,56,30.13,10.0,West,10.4,16.1,N/A,,Clear,270,2012-10-10 17:55:00
2:15 PM,72.7,55.9,56,30.13,10.0,WNW,13.8,18.4,N/A,,Clear,290,2012-10-10 18:15:00
2:35 PM,72.3,56.7,58,30.12,10.0,WNW,8.1,-,N/A,,Clear,290,2012-10-10 18:35:00
2:55 PM,72.7,56.7,57,30.12,10.0,West,13.8,18.4,N/A,,Clear,280,2012-10-10 18:55:00
3:15 PM,72.9,57.2,58,30.11,10.0,NW,11.5,-,N/A,,Scattered Clouds,320,2012-10-10 19:15:00
3:35 PM,74.1,57.4,56,30.11,10.0,NW,12.7,-,N/A,,Mostly Cloudy,310,2012-10-10 19:35:00
3:55 PM,74.3,57.6,56,30.11,10.0,West,10.4,19.6,N/A,,Mostly Cloudy,270,2012-10-10 19:55:00
4:15 PM,72.9,57.4,58,30.11,10.0,West,10.4,-,N/A,,Scattered Clouds,280,2012-10-10 20:15:00
4:35 PM,73.0,57.2,57,30.11,10.0,WNW,11.5,-,N/A,,Clear,290,2012-10-10 20:35:00
4:55 PM,74.1,57.0,55,30.11,10.0,West,15.0,20.7,N/A,,Scattered Clouds,280,2012-10-10 20:55:00
5:15 PM,73.8,57.2,56,30.11,10.0,West,12.7,19.6,N/A,,Mostly Cloudy,280,2012-10-10 21:15:00
5:35 PM,72.3,57.0,59,30.12,10.0,WNW,12.7,18.4,N/A,,Overcast,290,2012-10-10 21:35:00
5:55 PM,70.9,56.3,60,30.12,10.0,West,9.2,-,N/A,,Scattered Clouds,270,2012-10-10 21:55:00
6:15 PM,70.5,56.1,60,30.13,10.0,West,9.2,17.3,N/A,,Clear,280,2012-10-10 22:15:00
6:35 PM,69.6,56.1,62,30.13,10.0,West,6.9,17.3,N/A,,Clear,280,2012-10-10 22:35:00
6:55 PM,68.0,56.3,66,30.14,10.0,West,6.9,-,N/A,,Clear,280,2012-10-10 22:55:00
7:15 PM,66.2,55.9,69,30.14,10.0,West,5.8,-,N/A,,Clear,260,2012-10-10 23:15:00
7:35 PM,64.9,55.8,72,30.14,10.0,West,4.6,-,N/A,,Clear,260,2012-10-10 23:35:00
7:55 PM,64.0,55.6,74,30.15,10.0,West,4.6,-,N/A,,Clear,270,2012-10-10 23:55:00
8:15 PM,63.7,55.4,74,30.16,10.0,West,3.5,-,N/A,,Clear,280,2012-10-11 00:15:00
8:35 PM,60.6,55.4,83,30.16,10.0,Calm,Calm,-,N/A,,Clear,0,2012-10-11 00:35:00
8:55 PM,59.2,55.4,87,30.17,10.0,Calm,Calm,-,N/A,,Clear,0,2012-10-11 00:55:00
9:15 PM,57.9,54.9,90,30.17,10.0,Calm,Calm,-,N/A,,Clear,0,2012-10-11 01:15:00
9:35 PM,56.5,54.5,93,30.18,10.0,Calm,Calm,-,N/A,,Clear,0,2012-10-11 01:35:00
9:55 PM,55.6,54.7,97,30.18,10.0,Calm,Calm,-,N/A,,Clear,0,2012-10-11 01:55:00
10:15 PM,54.9,54.5,99,30.19,10.0,Calm,Calm,-,N/A,,Clear,0,2012-10-11 02:15:00
10:35 PM,54.3,54.3,100,30.19,10.0,Calm,Calm,-,N/A,,Clear,0,2012-10-11 02:35:00
10:55 PM,53.6,53.6,100,30.20,10.0,Calm,Calm,-,N/A,,Clear,0,2012-10-11 02:55:00
11:15 PM,52.9,52.9,100,30.20,10.0,Calm,Calm,-,N/A,,Clear,0,2012-10-11 03:15:00
11:35 PM,52.2,52.2,100,30.20,10.0,Calm,Calm,-,N/A,,Clear,0,2012-10-11 03:35:00
11:55 PM,51.4,51.4,100,30.20,7.0,Calm,Calm,-,N/A,,Clear,0,2012-10-11 03:55:00